Weather History for Charlottetown, PE

Change the Weather History Date:

Thursday, December 19, 2013

  Actual Average Record
Temperature  
Mean Temperature 18 °F -  
Max Temperature 23 °F 28 °F 50 °F (1996)
Min Temperature 13 °F 13 °F 5 °F (2008)
Degree Days  
Heating Degree Days 47    
Moisture  
Dew Point 15 °F    
Average Humidity 80    
Maximum Humidity 93    
Minimum Humidity 60    
Precipitation  
Precipitation 0.01 in 0.15 in - ()
Sea Level Pressure  
Sea Level Pressure 29.85 in    
Wind  
Wind Speed 12 mph ()    
Max Wind Speed 20 mph    
Max Gust Speed 31 mph    
Visibility 11.2 miles    
Events Snow    
Averages and records for this station are not official NWS values.
T = Trace of Precipitation, MM = Missing Value Source: Averaged Metar Reports

Daily Weather History Graph

Daily Weather History Graph

Search for Another Location

Airport:

Trip Planner

Search our weather history database for the weather conditions in past years. The results will help you decide how hot, cold, wet, or windy it might be!

Date:

Astronomy

Dec. 19, 2013 Rise Set
Actual Time 7:51 AM AST 4:27 PM AST
Civil Twilight 7:16 AM AST 5:02 PM AST
Nautical Twilight 6:38 AM AST 5:41 PM AST
Astronomical Twilight 6:01 AM AST 6:17 PM AST
Moon 6:56 PM AST (12/19) 9:01 AM AST (12/19)
Length of Visible Light 9h 46m
Length of Day
8h 36m
Waning Gibbous, 95% of the Moon is Illuminated
Dec 19
Waning Gibbous
Dec 25
Last Quarter
Jan 1
New
Jan 7
First Quarter
Jan 16
Full

Hourly Weather History & Observations

Time (AST) Temp. Windchill Dew Point Humidity Pressure Visibility Wind Dir Wind Speed Gust Speed Precip Events Conditions
12:00 AM 26.6 °F 13.1 °F 21.2 °F 80% 29.61 in 3.0 mi NW 19.6 mph 29.9 mph N/A Snow Light Snow Showers
12:20 AM 24.8 °F 10.7 °F 23.0 °F 93% 29.62 in 1.0 mi WNW 19.6 mph 26.5 mph N/A Snow Light Snow Showers
12:53 AM 23.0 °F 8.7 °F 19.4 °F 86% 29.65 in 5.0 mi WNW 18.4 mph 31.1 mph N/A Snow Light Snow Showers
1:00 AM 23.0 °F 9.2 °F 19.4 °F 86% 29.66 in 5.0 mi West 17.3 mph 29.9 mph N/A Snow Light Snow Showers
2:00 AM 20 °F - 15 °F 75% 29.70 in 12 mi West 15.0 mph - - Snow Light Snow Showers
2:00 AM 19.4 °F 5.5 °F 15.8 °F 86% 29.70 in 12.0 mi WNW 15.0 mph 21.9 mph N/A Snow Light Snow Showers
3:00 AM 17.6 °F 3.7 °F 12.2 °F 79% 29.74 in 15.0 mi West 13.8 mph - N/A Snow Low Drifting Snow
4:00 AM 15.8 °F 1.4 °F 10.4 °F 79% 29.76 in 15.0 mi West 13.8 mph 23.0 mph N/A Snow Low Drifting Snow
5:00 AM 15.8 °F 0.3 °F 8.6 °F 73% 29.78 in 15.0 mi West 16.1 mph 27.6 mph N/A Snow Low Drifting Snow
6:00 AM 14.0 °F 0.5 °F 10.4 °F 86% 29.81 in 15.0 mi West 11.5 mph 18.4 mph N/A Snow Low Drifting Snow
7:00 AM 14.0 °F 1.2 °F 10.4 °F 86% 29.84 in 15.0 mi West 10.4 mph - N/A   Scattered Clouds
8:00 AM 15 °F - 11 °F 78% 29.86 in 15 mi West 12.7 mph - -   Partly Cloudy
8:00 AM 15.8 °F 2.1 °F 10.4 °F 79% 29.86 in 15.0 mi West 12.7 mph 19.6 mph N/A   Partly Cloudy
9:00 AM 15.8 °F 2.7 °F 10.4 °F 79% 29.89 in 15.0 mi West 11.5 mph - N/A Snow Low Drifting Snow
10:00 AM 17.6 °F 6.4 °F 12.2 °F 79% 29.91 in 15.0 mi West 9.2 mph 19.6 mph N/A Snow Low Drifting Snow
11:00 AM 17.6 °F 3.7 °F 10.4 °F 73% 29.92 in 15.0 mi West 13.8 mph 21.9 mph N/A   Partly Cloudy
12:00 PM 19.4 °F 6.6 °F 12.2 °F 74% 29.92 in 15.0 mi West 12.7 mph - N/A Snow Light Snow Showers
1:00 PM 21.2 °F 9.5 °F 14.0 °F 74% 29.90 in 15.0 mi WSW 11.5 mph - N/A Snow Light Snow Showers
2:00 PM 20 °F - 12 °F 60% 29.90 in 15 mi WSW 13.8 mph - - Snow Light Snow Showers
2:00 PM 19.4 °F 5.5 °F 12.2 °F 74% 29.90 in 15.0 mi West 15.0 mph 21.9 mph N/A Snow Light Snow Showers
3:00 PM 21.2 °F - 12.2 °F 68% 29.91 in 15.0 mi North - - N/A Snow Low Drifting Snow
4:00 PM 19.4 °F 9.5 °F 12.2 °F 74% 29.93 in 15.0 mi WSW 8.1 mph - N/A   Mostly Cloudy
5:00 PM 19.4 °F 12.8 °F 12.2 °F 74% 29.91 in 15.0 mi WSW 4.6 mph - N/A   Mostly Cloudy
6:00 PM 19.4 °F 12.8 °F 14.0 °F 80% 29.90 in 15.0 mi SW 4.6 mph - N/A   Mostly Cloudy
6:39 PM 21.2 °F 11.7 °F 15.8 °F 80% 29.90 in 12.0 mi WSW 8.1 mph - N/A Snow Light Snow Showers
7:00 PM 21.2 °F 10.1 °F 15.8 °F 80% 29.91 in 15.0 mi WSW 10.4 mph - N/A Snow Light Snow Showers
7:44 PM 21.2 °F 11.7 °F 17.6 °F 86% 29.92 in 5.0 mi WSW 8.1 mph - N/A Snow Light Snow Showers
8:00 PM 22 °F - 18 °F 80% 29.92 in 4 mi WSW 6.9 mph - - Snow Light Snow Showers
8:00 PM 21.2 °F 10.9 °F 17.6 °F 86% 29.92 in 4.0 mi WSW 9.2 mph - N/A Snow Light Snow Showers
9:00 PM 21.2 °F 11.7 °F 19.4 °F 93% 29.93 in 5.0 mi WSW 8.1 mph - N/A Snow Light Snow Showers
9:44 PM 23.0 °F 14.7 °F 19.4 °F 86% 29.93 in 6.0 mi WSW 6.9 mph - N/A Snow Light Snow Showers
10:00 PM 23.0 °F 13.9 °F 19.4 °F 86% 29.94 in 5.0 mi WSW 8.1 mph - N/A Snow Light Snow Showers
11:00 PM 23.0 °F 11.7 °F 17.6 °F 80% 29.96 in 4.0 mi West 11.5 mph - N/A Snow Light Snow Showers